Wind_Speed
8 8 7 6 6 5 5 4 5 5 6 6 7 8 9 9 10 10 11 11 10 9 10 10 10 10 9 9 9 9 9 8 9 10 10 10 11 11 11 12 12 12 12 12 11 12 11 11 11
9 9 9 8 8 7 7 6 6 7 7 8 8 9 10 11 11 11 11 11 11 10 10 11 11 10 10 10 10 10 10 10 10 11 11 11 12 12 12 12 13 13 13 12 12 12 12 12 12
10 9 9 9 9 8 8 8 8 7 7 8 9 10 11 11 11 12 12 12 12 11 12 12 11 12 11 10 10 11 10 11 11 12 12 12 12 12 13 13 14 14 13 13 12 13 13 12 12
11 11 11 10 8 8 9 9 9 9 8 9 10 10 10 10 11 12 12 12 12 12 12 11 11 11 11 10 10 11 11 12 12 12 12 13 13 14 14 14 15 15 14 14 13 13 14 13 14
12 11 11 11 10 10 10 11 10 9 9 10 11 11 11 10 11 12 11 11 10 10 11 11 10 10 11 11 12 12 12 12 13 13 13 14 15 15 15 15 16 15 15 15 15 15 15 15 15
12 12 12 11 11 11 11 11 11 11 10 11 12 11 12 12 12 11 11 10 10 10 11 11 10 10 12 12 12 12 12 13 14 15 15 16 16 16 16 16 16 17 16 16 16 16 16 16 17
12 12 11 11 11 11 12 12 11 11 11 11 11 11 12 12 12 10 11 10 10 10 10 10 10 10 11 12 13 13 13 13 14 16 16 17 17 17 17 17 17 17 17 17 17 17 17 18 18
12 12 11 11 12 12 12 12 12 12 12 12 12 12 12 12 11 11 11 11 10 10 10 10 11 11 11 12 13 13 13 13 14 15 16 16 17 17 17 18 18 17 17 17 18 18 18 18 18
13 12 11 11 13 12 12 12 12 12 13 13 12 13 13 14 12 11 11 11 11 10 10 10 11 12 13 13 14 14 14 14 14 15 16 17 17 17 18 19 19 18 19 19 19 19 20 20 19
13 13 12 13 13 12 12 11 12 12 13 12 12 12 13 13 13 12 11 11 11 11 11 11 11 12 13 14 14 14 15 16 16 16 17 17 17 18 19 19 19 19 20 20 20 21 21 21 20
14 14 13 13 14 13 12 11 11 12 12 11 12 13 13 12 12 12 11 11 12 12 12 12 11 12 13 14 14 15 15 16 17 17 16 17 17 18 18 18 19 20 21 21 22 22 22 22 22
15 14 14 14 14 13 12 11 11 12 12 12 13 13 13 12 12 12 12 12 13 14 13 13 12 12 13 14 15 16 16 16 16 16 17 17 17 18 17 17 18 19 20 21 20 21 21 21 21
14 15 14 13 13 12 11 11 11 12 13 12 13 13 13 13 12 12 12 13 13 14 14 13 13 13 13 14 15 15 15 15 16 16 16 16 16 17 18 18 18 19 20 21 21 21 20 20 21
15 15 14 13 13 13 12 12 11 12 13 12 12 12 13 14 13 13 13 13 14 14 12 13 13 13 13 14 15 15 15 16 16 16 16 16 17 17 17 18 19 19 19 18 19 20 20 19 20
14 14 14 14 13 13 13 11 12 13 12 13 13 13 13 15 14 14 13 13 14 12 12 13 13 13 13 14 14 15 15 16 17 17 17 17 17 17 17 17 18 19 19 19 19 19 19 20 21
13 14 14 13 13 12 12 11 12 13 12 13 13 13 13 14 13 12 11 12 12 12 12 13 13 13 13 14 14 15 16 17 17 17 17 17 17 17 17 18 18 18 20 20 20 19 20 20 20
13 14 13 13 13 11 10 10 11 12 13 13 13 13 13 13 11 10 10 10 11 11 12 13 13 13 14 13 13 15 16 16 16 16 17 17 18 18 18 18 18 19 20 20 21 20 19 19 20
12 13 13 13 12 11 10 10 10 10 12 12 12 11 11 11 10 10 10 11 11 11 13 13 13 13 13 13 14 14 16 16 15 16 16 16 17 17 17 18 18 19 19 20 20 19 20 20 21
12 12 12 12 12 12 11 9 9 10 11 11 11 11 11 11 11 11 11 11 12 13 13 13 14 13 13 13 13 15 15 15 15 15 15 15 16 16 17 17 17 18 19 19 19 19 20 21 21
12 12 12 12 12 12 9 9 9 10 11 12 11 11 11 10 10 10 11 11 11 12 12 13 13 13 14 13 13 14 14 15 14 13 13 13 13 14 15 16 17 17 17 17 17 18 20 21 21
12 12 13 13 13 12 12 11 10 10 12 12 11 10 10 10 10 10 11 12 12 12 13 12 12 13 12 12 12 12 13 13 13 12 12 13 13 13 14 15 15 15 16 16 16 18 19 20 21
12 12 13 13 13 12 12 11 9 11 11 11 10 10 10 9 10 10 11 12 12 12 12 11 11 12 12 11 11 12 12 12 12 11 12 13 13 13 13 14 14 14 15 15 15 16 18 18 19
12 12 12 12 12 11 12 12 9 10 9 9 9 10 9 10 10 10 11 12 12 11 11 11 11 11 11 11 12 12 12 12 11 11 11 12 13 13 13 13 14 15 15 15 16 17 17 18 18
12 12 11 12 12 12 10 11 9 8 8 8 8 9 10 10 10 10 10 11 11 10 11 11 10 11 11 11 12 13 13 12 12 11 11 12 13 13 13 13 14 15 15 15 17 17 17 18 19
12 12 12 12 11 11 9 10 9 8 9 9 10 10 11 11 11 10 10 11 10 10 10 10 11 11 11 12 13 12 12 12 12 12 12 12 12 13 14 14 15 15 16 16 17 17 18 19 20
13 12 12 13 12 11 11 10 10 10 10 11 11 11 12 12 11 11 11 11 11 11 11 10 10 11 11 11 12 12 12 12 12 12 12 12 12 13 14 15 15 15 16 16 16 17 18 19 19
13 13 13 13 13 12 12 11 11 11 12 12 12 12 12 11 11 11 11 11 11 11 11 10 11 11 11 11 11 12 12 12 13 13 13 13 14 14 15 15 16 16 16 16 17 17 19 20 20
14 15 14 13 13 13 13 13 13 12 13 13 14 14 12 11 11 11 12 11 11 11 11 11 11 11 11 11 12 13 13 13 13 14 15 15 16 17 17 16 17 17 17 18 18 19 20 21 21
14 14 14 13 13 13 13 14 13 13 14 15 15 15 13 13 12 12 12 12 12 11 11 11 11 11 11 12 13 13 13 13 14 15 15 15 17 17 17 16 17 18 18 19 20 20 21 21 21
15 15 15 15 15 15 15 15 15 15 15 16 16 15 14 15 14 13 13 13 13 12 12 12 12 12 12 13 13 14 15 15 15 16 16 16 17 16 16 16 17 17 18 19 20 21 20 20 20
Wind_Direction
248 247 247 249 255 260 264 271 283 296 309 318 321 325 325 327 328 327 325 322 316 309 303 300 303 303 298 298 297 298 300 299 297 296 297 296 294 294 293 291 289 287 287 288 289 284 281 279 278
247 247 246 247 253 256 260 271 284 291 300 310 314 318 320 319 317 316 317 315 313 311 306 295 296 301 297 294 295 299 297 295 293 293 292 294 295 293 291 291 288 286 285 282 284 280 278 275 275
247 247 246 250 251 256 267 275 283 291 297 307 308 313 314 312 311 309 311 312 309 310 308 303 296 295 294 294 297 299 296 293 291 290 289 292 293 293 291 291 289 285 282 279 281 279 278 275 272
244 245 246 250 252 259 265 273 282 291 296 302 306 311 314 312 313 312 313 313 312 311 305 300 296 293 292 293 295 301 296 292 290 288 286 288 291 290 289 290 289 286 280 277 277 276 274 277 275
244 246 248 251 255 260 266 274 280 291 299 303 305 310 312 313 314 313 314 312 314 314 308 297 289 290 290 289 294 297 293 292 290 287 286 288 287 287 285 286 286 284 282 277 273 272 271 273 274
244 248 248 250 256 263 270 276 284 290 298 302 303 306 310 312 312 314 313 309 305 305 306 300 287 286 290 290 289 291 289 291 289 286 287 288 287 285 283 284 284 281 278 277 272 271 271 272 272
244 246 248 250 257 264 271 276 285 286 292 299 302 305 310 310 309 313 311 306 303 304 302 300 289 290 290 286 285 290 289 293 292 288 287 288 285 284 283 282 280 280 277 275 274 272 271 270 270
242 245 251 253 257 264 271 279 286 289 294 297 300 305 307 308 308 311 309 304 305 306 302 298 296 295 293 295 289 286 289 293 294 289 285 282 282 282 282 282 281 278 274 273 274 273 272 270 270
238 242 246 250 252 259 267 277 285 288 292 296 299 303 304 307 306 305 304 303 305 306 303 297 294 296 296 295 292 286 288 291 290 287 284 283 283 282 280 281 279 277 275 274 273 273 273 270 269
240 243 243 246 248 254 264 275 288 291 294 296 302 305 303 306 304 299 299 302 303 303 300 296 291 295 295 292 292 288 289 290 288 287 285 284 283 281 279 277 276 277 277 275 274 273 273 271 269
241 243 243 246 251 254 261 274 289 295 298 302 303 305 304 304 301 298 295 298 300 299 297 296 294 293 294 293 293 289 288 289 288 289 288 285 282 280 277 275 275 277 278 276 275 274 272 271 271
242 243 246 249 254 256 262 274 286 295 300 300 301 304 305 304 302 302 302 300 298 297 294 294 299 295 294 293 295 293 291 292 290 290 288 284 283 280 277 277 276 276 276 277 275 274 272 272 271
242 246 248 251 256 261 269 276 283 293 297 297 301 307 310 305 302 299 302 302 300 298 294 293 295 297 293 291 291 289 291 293 293 290 287 286 284 280 277 277 278 277 276 276 275 272 271 269 270
245 248 252 256 258 262 269 276 280 286 291 299 304 309 310 309 303 297 296 298 298 298 293 296 301 302 295 288 286 288 289 293 293 291 288 286 283 280 278 277 278 278 277 277 276 272 271 270 270
246 248 250 258 263 263 270 275 282 285 291 301 302 307 311 311 307 299 294 294 297 297 297 297 303 309 303 288 284 286 289 292 291 287 287 286 285 281 280 278 278 278 278 280 280 274 271 273 274
249 251 251 257 263 266 269 272 280 284 289 298 302 306 310 313 315 304 297 299 299 300 305 305 302 304 304 296 286 285 287 289 287 284 286 286 285 282 280 280 279 278 278 278 280 275 275 275 275
247 251 253 257 262 266 267 268 275 278 283 294 300 305 309 314 315 308 303 302 305 305 307 310 307 301 302 302 294 292 291 291 289 287 285 283 284 282 282 279 279 279 278 276 275 274 272 273 277
249 250 253 257 262 267 270 273 279 277 280 290 298 306 309 310 314 311 309 307 308 307 306 307 305 304 303 303 298 295 294 292 287 286 286 283 282 282 282 279 279 277 277 276 273 273 273 275 278
252 254 259 265 266 271 274 274 277 283 286 287 296 304 309 308 310 311 310 311 310 307 305 302 302 304 304 304 302 297 294 292 286 283 285 286 283 282 283 283 280 277 278 278 275 273 275 276 277
252 257 260 264 273 272 274 276 281 288 288 289 297 303 307 308 306 309 311 310 312 310 309 306 305 306 306 306 308 303 299 299 293 286 289 290 289 291 290 289 283 280 281 283 279 275 276 276 278
250 259 262 266 271 274 278 282 279 281 283 288 294 302 307 309 307 306 309 307 308 306 307 308 308 310 312 309 313 315 313 309 302 294 291 292 294 296 297 293 288 286 285 285 283 278 278 278 281
251 258 262 263 267 270 279 285 284 284 284 286 290 298 306 311 311 309 309 308 308 310 308 307 312 316 317 314 316 319 316 311 307 303 296 295 299 298 298 298 295 293 292 289 286 283 282 281 282
250 256 258 262 266 274 279 281 289 291 290 292 296 299 301 305 310 311 312 312 312 310 310 309 313 319 324 321 317 318 316 316 317 314 305 299 300 301 300 302 299 296 295 292 289 289 284 284 285
245 251 257 263 265 269 274 275 284 290 293 294 296 303 303 304 306 307 311 316 314 312 313 312 314 321 325 324 318 314 314 317 318 314 308 304 306 304 303 302 301 300 296 293 292 289 289 289 288
245 252 259 263 264 267 269 273 285 291 291 294 297 303 306 306 306 307 310 316 317 319 318 317 319 321 322 323 324 320 318 320 319 318 314 310 309 306 305 304 304 302 298 293 292 291 290 290 290
247 253 260 264 264 270 277 279 286 290 290 292 295 300 304 307 307 310 312 311 311 313 319 323 323 325 324 326 327 327 325 320 319 318 315 311 310 310 308 306 304 301 298 295 294 296 296 296 296
251 254 257 262 265 271 277 283 286 288 289 292 294 297 301 307 305 305 308 307 309 309 315 320 324 325 329 333 335 332 328 324 320 316 314 311 309 308 306 306 302 298 296 295 296 298 299 299 297
252 255 255 257 265 273 280 288 292 288 291 294 296 298 299 303 305 306 307 305 305 308 313 315 318 321 324 328 328 330 327 324 322 318 315 312 310 308 306 302 300 298 296 296 298 301 300 300 298
256 257 254 256 266 276 283 289 290 290 292 294 296 294 293 294 299 301 304 304 300 301 304 306 311 313 316 320 322 324 324 324 323 323 319 316 314 311 308 305 303 301 300 300 301 302 302 300 299
258 259 258 262 267 273 283 289 291 290 290 292 293 292 291 292 293 296 297 297 298 298 301 302 304 306 309 314 318 321 323 323 322 322 320 317 316 314 310 307 307 306 304 304 305 304 304 303 302
Height
5873 5874 5875 5876 5877 5877 5876 5876 5876 5875 5875 5875 5875 5875 5875 5875 5875 5877 5875 5873 5872 5872 5872 5871 5871 5870 5869 5868 5868 5868 5868 5868 5869 5869 5869 5870 5870 5870 5870 5870 5871 5871 5871 5871 5872 5872 5872 5872 5873
5872 5873 5875 5875 5875 5875 5875 5875 5875 5874 5874 5874 5873 5873 5873 5873 5873 5873 5872 5871 5870 5870 5869 5869 5869 5868 5867 5866 5866 5866 5866 5866 5867 5867 5867 5867 5868 5868 5868 5868 5868 5868 5869 5869 5869 5870 5870 5870 5870
5871 5872 5874 5874 5873 5874 5874 5874 5874 5873 5873 5873 5872 5872 5872 5871 5871 5870 5870 5869 5868 5868 5867 5867 5866 5866 5865 5864 5864 5864 5864 5864 5864 5864 5864 5865 5865 5865 5865 5865 5866 5866 5866 5866 5866 5867 5867 5867 5868
5870 5871 5872 5873 5872 5873 5873 5872 5872 5872 5872 5872 5871 5870 5870 5869 5868 5868 5867 5866 5866 5866 5865 5865 5864 5863 5863 5862 5862 5862 5862 5862 5862 5862 5862 5862 5862 5862 5862 5863 5863 5863 5863 5863 5864 5864 5864 5865 5865
5868 5870 5870 5871 5871 5871 5871 5871 5870 5870 5870 5870 5869 5868 5868 5867 5866 5865 5865 5864 5864 5863 5863 5862 5862 5861 5861 5860 5860 5860 5860 5860 5860 5859 5859 5859 5859 5859 5859 5860 5860 5860 5860 5860 5860 5861 5861 5862 5862
5867 5868 5869 5869 5869 5870 5869 5869 5869 5869 5868 5868 5867 5867 5866 5865 5864 5863 5863 5862 5862 5861 5860 5860 5859 5859 5859 5858 5858 5857 5857 5857 5857 5857 5856 5856 5856 5856 5856 5856 5856 5856 5856 5856 5856 5857 5857 5858 5858
5866 5866 5866 5867 5867 5867 5867 5867 5867 5866 5866 5866 5865 5864 5864 5863 5862 5861 5860 5860 5859 5858 5858 5857 5857 5856 5856 5855 5855 5855 5854 5854 5854 5853 5853 5853 5852 5852 5852 5853 5852 5852 5853 5853 5853 5853 5854 5854 5854
5863 5865 5864 5864 5865 5865 5865 5865 5865 5864 5864 5863 5863 5862 5861 5861 5860 5859 5858 5857 5857 5856 5855 5855 5854 5853 5853 5853 5852 5852 5851 5850 5850 5850 5849 5849 5849 5849 5849 5849 5848 5848 5848 5848 5849 5849 5849 5850 5850
5861 5863 5862 5863 5863 5863 5863 5862 5862 5862 5862 5861 5860 5860 5859 5858 5857 5856 5856 5855 5854 5854 5853 5852 5852 5851 5850 5850 5849 5849 5849 5848 5847 5846 5846 5845 5845 5845 5845 5845 5845 5844 5844 5844 5845 5845 5845 5845 5845
5859 5860 5860 5861 5860 5860 5860 5860 5860 5860 5859 5858 5858 5857 5856 5855 5855 5854 5853 5853 5852 5851 5851 5850 5849 5848 5847 5847 5846 5846 5845 5845 5844 5843 5842 5841 5841 5841 5841 5840 5840 5840 5840 5840 5840 5840 5840 5840 5840
5856 5858 5858 5858 5858 5858 5858 5858 5858 5857 5857 5856 5855 5854 5853 5852 5852 5851 5850 5850 5849 5849 5848 5847 5846 5845 5844 5844 5843 5843 5842 5841 5840 5839 5838 5837 5837 5837 5836 5836 5836 5835 5835 5835 5835 5835 5835 5835 5835
5854 5855 5855 5856 5856 5856 5856 5856 5856 5855 5855 5853 5852 5851 5851 5850 5849 5849 5848 5847 5846 5845 5844 5844 5842 5841 5840 5840 5840 5839 5838 5837 5836 5835 5834 5833 5833 5832 5832 5832 5831 5831 5830 5830 5829 5830 5830 5830 5830
5851 5852 5853 5854 5854 5854 5853 5853 5853 5853 5852 5851 5850 5850 5849 5848 5847 5846 5845 5844 5843 5842 5841 5840 5839 5837 5836 5836 5836 5835 5834 5833 5832 5831 5830 5829 5828 5828 5827 5827 5827 5826 5825 5825 5824 5825 5825 5825 5825
5849 5850 5850 5851 5851 5851 5851 5851 5850 5850 5849 5849 5848 5847 5846 5845 5844 5843 5842 5841 5839 5838 5837 5836 5835 5833 5832 5832 5831 5831 5830 5830 5828 5827 5826 5825 5824 5823 5822 5822 5822 5821 5820 5820 5820 5820 5820 5820 5820
5846 5848 5848 5848 5848 5848 5849 5849 5848 5847 5846 5846 5845 5845 5844 5842 5841 5839 5838 5837 5836 5835 5834 5832 5831 5830 5828 5827 5827 5827 5826 5825 5824 5823 5821 5820 5819 5818 5818 5817 5817 5816 5815 5815 5815 5815 5815 5814 5815
5844 5845 5846 5846 5846 5846 5847 5847 5846 5845 5844 5843 5843 5842 5841 5839 5837 5836 5835 5834 5833 5832 5831 5829 5828 5827 5825 5824 5823 5823 5822 5821 5819 5818 5817 5816 5814 5813 5813 5812 5811 5811 5810 5810 5810 5810 5810 5809 5809
5842 5842 5843 5844 5844 5843 5844 5843 5843 5842 5842 5841 5840 5839 5838 5836 5834 5833 5832 5831 5830 5829 5828 5827 5825 5824 5822 5821 5819 5818 5817 5816 5815 5814 5812 5811 5810 5808 5807 5807 5806 5805 5805 5804 5805 5805 5805 5804 5804
5840 5840 5840 5841 5841 5841 5841 5841 5841 5839 5839 5838 5838 5837 5835 5834 5832 5831 5830 5829 5828 5826 5825 5824 5823 5821 5819 5817 5816 5814 5813 5812 5810 5809 5808 5806 5805 5803 5802 5801 5801 5800 5799 5799 5799 5799 5800 5799 5799
5838 5839 5839 5839 5839 5839 5838 5838 5838 5837 5837 5836 5836 5835 5833 5832 5830 5829 5828 5827 5825 5824 5823 5822 5820 5818 5816 5814 5813 5811 5810 5808 5806 5805 5803 5802 5800 5798 5797 5796 5796 5795 5794 5794 5793 5795 5795 5794 5793
5836 5837 5837 5838 5837 5837 5836 5836 5836 5835 5835 5834 5833 5833 5832 5830 5828 5827 5826 5824 5823 5821 5820 5818 5817 5815 5813 5811 5810 5808 5806 5805 5803 5801 5800 5798 5796 5794 5793 5792 5791 5791 5790 5790 5789 5790 5790 5789 5788
5834 5835 5835 5836 5835 5834 5834 5834 5833 5833 5832 5831 5831 5830 5829 5828 5826 5825 5824 5822 5821 5819 5818 5816 5814 5812 5810 5808 5807 5805 5803 5801 5800 5798 5797 5795 5794 5792 5790 5789 5788 5787 5787 5786 5785 5785 5785 5784 5783
5831 5833 5833 5833 5832 5832 5832 5831 5831 5830 5830 5829 5828 5828 5826 5825 5824 5823 5822 5820 5819 5817 5815 5813 5812 5810 5808 5806 5804 5802 5800 5799 5797 5795 5794 5793 5791 5790 5788 5786 5785 5784 5783 5782 5782 5781 5780 5779 5779
5829 5830 5830 5830 5830 5830 5830 5829 5830 5828 5827 5827 5826 5825 5824 5823 5822 5820 5819 5818 5816 5815 5813 5811 5809 5808 5806 5804 5802 5800 5798 5796 5794 5793 5791 5790 5789 5787 5785 5784 5783 5781 5780 5779 5778 5777 5776 5775 5774
5826 5827 5827 5827 5828 5828 5828 5828 5828 5827 5826 5825 5824 5823 5822 5821 5819 5818 5817 5815 5814 5812 5811 5809 5807 5805 5803 5801 5799 5797 5795 5793 5792 5790 5789 5787 5786 5784 5782 5781 5780 5779 5777 5776 5775 5773 5772 5770 5769
5824 5825 5825 5825 5825 5826 5826 5826 5827 5826 5825 5824 5823 5822 5820 5819 5818 5816 5815 5813 5811 5810 5808 5807 5805 5803 5801 5799 5797 5795 5793 5791 5789 5787 5786 5785 5783 5781 5780 5778 5777 5775 5774 5772 5771 5770 5768 5767 5765
5822 5823 5824 5824 5823 5824 5824 5824 5825 5824 5823 5822 5821 5820 5818 5817 5816 5814 5813 5811 5809 5808 5806 5804 5803 5801 5799 5797 5795 5793 5791 5789 5787 5785 5783 5782 5780 5779 5777 5775 5774 5772 5770 5769 5768 5766 5764 5763 5761
5819 5819 5821 5821 5821 5822 5822 5822 5822 5822 5821 5820 5819 5818 5816 5815 5814 5812 5810 5809 5807 5806 5804 5802 5800 5798 5797 5795 5793 5791 5789 5787 5785 5783 5781 5779 5777 5775 5774 5772 5770 5769 5767 5766 5764 5762 5760 5758 5756
5817 5817 5818 5818 5818 5819 5820 5820 5820 5819 5818 5817 5816 5815 5814 5813 5811 5809 5808 5806 5805 5803 5801 5800 5798 5796 5794 5793 5791 5789 5787 5784 5782 5780 5777 5775 5773 5772 5770 5768 5766 5765 5763 5762 5760 5757 5755 5753 5751
5813 5814 5813 5815 5815 5816 5816 5819 5817 5816 5815 5814 5813 5811 5810 5809 5808 5807 5805 5803 5802 5801 5799 5797 5795 5794 5792 5791 5788 5786 5784 5782 5779 5777 5775 5772 5770 5767 5765 5764 5762 5761 5759 5757 5755 5753 5750 5748 5746
5809 5810 5811 5812 5813 5813 5813 5816 5813 5812 5811 5810 5809 5808 5806 5806 5804 5803 5802 5800 5799 5797 5796 5794 5792 5791 5790 5788 5785 5783 5781 5779 5777 5774 5771 5769 5766 5763 5761 5760 5758 5757 5755 5753 5750 5748 5746 5743 5741